TimeCDT,TemperatureF,Dew PointF,Humidity,Sea Level PressureIn,VisibilityMPH,Wind Direction,Wind SpeedMPH,Gust SpeedMPH,PrecipitationIn,Events,Conditions,WindDirDegrees,DateUTC
1:53 AM,61.0,53.1,75,29.98,10.0,South,6.9,-,N/A,,Partly Cloudy,170,2012-10-23 06:53:00
2:53 AM,63.0,54.0,72,29.99,10.0,Calm,Calm,-,N/A,,Overcast,0,2012-10-23 07:53:00
3:53 AM,64.0,54.0,70,29.99,10.0,South,3.5,-,N/A,,Overcast,180,2012-10-23 08:53:00
4:53 AM,63.0,54.0,72,29.99,10.0,SSE,4.6,-,N/A,,Overcast,160,2012-10-23 09:53:00
5:53 AM,64.9,51.1,61,30.00,10.0,South,8.1,-,N/A,,Overcast,190,2012-10-23 10:53:00
6:53 AM,62.1,52.0,70,30.01,10.0,South,8.1,-,N/A,,Overcast,180,2012-10-23 11:53:00
7:53 AM,63.0,52.0,67,30.02,9.0,South,9.2,-,N/A,,Overcast,180,2012-10-23 12:53:00
8:53 AM,66.9,52.0,59,30.03,9.0,South,12.7,-,N/A,,Partly Cloudy,190,2012-10-23 13:53:00
9:53 AM,70.0,53.1,55,30.03,10.0,SSW,16.1,21.9,N/A,,Overcast,200,2012-10-23 14:53:00
10:53 AM,75.0,54.0,48,30.03,10.0,SSW,16.1,21.9,N/A,,Partly Cloudy,210,2012-10-23 15:53:00
11:53 AM,75.9,55.0,48,30.03,10.0,SW,12.7,20.7,N/A,,Mostly Cloudy,220,2012-10-23 16:53:00
12:53 PM,73.9,55.0,52,30.01,10.0,SSW,10.4,-,N/A,,Mostly Cloudy,210,2012-10-23 17:53:00
1:53 PM,73.9,57.0,55,30.00,8.0,SSW,11.5,-,0.00,Rain,Light Rain,200,2012-10-23 18:53:00
2:53 PM,73.0,59.0,61,29.99,9.0,South,8.1,-,0.00,Rain,Light Rain,190,2012-10-23 19:53:00
3:53 PM,71.1,59.0,66,29.97,10.0,South,10.4,-,0.00,,Overcast,180,2012-10-23 20:53:00
4:53 PM,66.9,61.0,81,29.98,5.0,SSW,6.9,-,0.01,Rain,Light Rain,210,2012-10-23 21:53:00
4:58 PM,66.2,60.8,83,29.97,1.8,SSE,3.5,-,0.02,Rain,Rain,160,2012-10-23 21:58:00
5:06 PM,66.2,62.6,88,29.97,3.0,SSE,3.5,-,0.02,Rain,Light Rain,150,2012-10-23 22:06:00
5:53 PM,66.9,61.0,81,29.95,8.0,ESE,5.8,-,0.03,,Overcast,120,2012-10-23 22:53:00
6:53 PM,66.9,59.0,76,29.96,10.0,SE,8.1,-,N/A,,Clear,140,2012-10-23 23:53:00
7:53 PM,64.0,57.9,80,29.97,9.0,South,5.8,-,N/A,,Clear,180,2012-10-24 00:53:00
8:53 PM,63.0,57.0,81,29.98,9.0,South,5.8,-,N/A,,Clear,180,2012-10-24 01:53:00
9:53 PM,62.1,55.0,78,29.99,10.0,South,6.9,-,N/A,,Clear,170,2012-10-24 02:53:00
10:53 PM,61.0,55.0,81,29.99,10.0,South,8.1,-,N/A,,Clear,170,2012-10-24 03:53:00
11:53 PM,60.1,54.0,80,30.00,10.0,South,5.8,-,N/A,,Clear,170,2012-10-24 04:53:00